Regional Weather Roundup
Issued by NWS

Home | Current Version | Previous Version | Graphics & Text | Print | Product List | Glossary Off
Versions: 1 2 3 4 5 6 7 8 9 10 11 12 13 14 15 16 17 18 19 20 21 22 23 24 25 26 27 28 29 30 31 32 33 34 35 36 37 38 39 40 41 42 43 44 45 46 47 48 49 50

000
ASUS43 KMKX 011611
RWRWI

WISCONSIN REGIONAL WEATHER ROUNDUP
NATIONAL WEATHER SERVICE MILWAUKEE/SULLIVAN WI
1100 AM CDT WED OCT 01 2014

NOTE: "FAIR" INDICATES FEW OR NO CLOUDS BELOW 12,000 FEET WITH NO
SIGNIFICANT WEATHER AND/OR OBSTRUCTIONS TO VISIBILITY.

WIZ001-002-006>008-014>016-023>028-011700-
NORTHWEST WISCONSIN

CITY           SKY/WX    TMP DP  RH WIND       PRES   REMARKS
SUPERIOR ARPT  RAIN      48  48  99 E3        29.86F
ASHLAND        CLOUDY    52  45  77 S3        29.89F
HAYWARD        LGT RAIN  47  46  97 SE8       29.89F FOG
SIREN          LGT RAIN  48  47  96 SE9       29.85F
CUMBERLAND     RAIN      46  45  93 SE8       29.88F
RICE LAKE      RAIN      48  46  93 SE13      29.90F
CHETEK         HVY RAIN  47  47  98 E8        29.90F
LADYSMITH      LGT RAIN  49  47  94 S5        29.93S
EAU CLAIRE     RAIN      49  47  93 E7        29.89F FOG
MENOMONIE      LGT RAIN  49  48  98 E8        29.88F
NEW RICHMOND   LGT RAIN  48  48  98 SE7       29.84F
OSCEOLA        RAIN      49  49 100 SE8       29.87F
$$

WIZ003>005-009-010-017-018-011700-
NORTH CENTRAL WISCONSIN

CITY           SKY/WX    TMP DP  RH WIND       PRES   REMARKS
MANITOWISH WTR CLOUDY    50  45  82 SE12      29.94F
ARBOR VITAE    CLOUDY    52  47  84 S13G18    29.95F
WOODRUFF       CLOUDY    52  47  84 S13G18    29.95F
RHINELANDER    CLOUDY    48  45  89 S9        29.98F
EAGLE RIVER    CLOUDY    48  44  84 SE10G18   29.97F
LAND O LAKES   CLOUDY    49  44  81 S12G17    29.97F
PHILLIPS       CLOUDY    49  45  85 SE10      29.92F
TOMAHAWK       CLOUDY    50  46  83 SE7       29.97F
MEDFORD        CLOUDY    50  46  84 SE12G17   29.94F
MERRILL        CLOUDY    52  47  83 S8        29.97F
$$

WIZ029-030-035-036-043>047-011700-
CENTRAL WISCONSIN

CITY           SKY/WX    TMP DP  RH WIND       PRES   REMARKS
WAUSAU         CLOUDY    53  48  83 S13       29.96F
MOSINEE        CLOUDY    54  50  87 SE9       29.97F
MARSHFIELD     CLOUDY    53  47  79 SE13      29.94F
STEVENS POINT  CLOUDY    53  47  79 SE10G16   29.97F
WAUPACA        PTSUNNY   60  50  70 SE9       29.98F
WAUTOMA        NOT AVBL
WISC RAPIDS    PTSUNNY   56  48  74 SE12      29.96F
CAMP DOUGLAS   PTSUNNY   57  54  88 E13       29.92F
$$

WIZ011>013-019>022-031-037>040-048>050-011700-
NORTHEAST WISCONSIN

CITY           SKY/WX    TMP DP  RH WIND       PRES   REMARKS
ANTIGO         CLOUDY    51  48  90 SE12      29.98F
SHAWANO        CLOUDY    56  51  83 SE6       30.00F
OCONTO         CLOUDY    53  53 100 SE7       30.02F
STURGEON BAY   NOT AVBL
GREEN BAY      CLOUDY    57  53  86 SE8       30.01F
MANITOWOC      NOT AVBL
APPLETON       CLOUDY    57  52  82 SE10      30.00F
CLINTONVILLE   CLOUDY    55  50  82 SE9       29.99F
OSHKOSH        MOSUNNY   61  51  70 S10G22    29.98F
$$

WIZ032>034-041-042-053>061-011700-
SOUTHWEST WISCONSIN

CITY           SKY/WX    TMP DP  RH WIND       PRES   REMARKS
LA CROSSE      CLOUDY    56  49  77 SE7       29.88F
SPARTA         CLOUDY    55  47  76 E6        29.91F
VIROQUA        CLOUDY    55  48  79 SE12      29.89F
BOSCOBEL       CLOUDY    59  49  69 VRB3      29.91F
PRAIRIE DU CHI CLOUDY    56  47  72 E13G18    29.84F
PLATTEVILLE    CLOUDY    59  51  75 SE9       29.92F
$$

WIZ056-057-062-063-064-067-068-011700-
SOUTH CENTRAL WISCONSIN

CITY           SKY/WX    TMP DP  RH WIND       PRES   REMARKS
REEDSBURG      MOSUNNY   58  49  72 SE7       29.93F
BARABOO/DELLS  MOSUNNY   60  48  62 SE10      29.95F
LONE ROCK      CLOUDY    64  48  56 SE9       29.93F
MINERAL POINT  CLOUDY    57  48  72 SE9       29.92F
MADISON        MOSUNNY   61  48  62 S16       29.96F
MIDDLETON      MOSUNNY   62  48  58 SE12      29.97F
WATERTOWN      SUNNY     61  48  64 SE10      29.98F
MONROE         MOSUNNY   59  50  72 SE12      29.95F
JANESVILLE     SUNNY     63  46  55 S10       29.97F
$$

WIZ051-052-058>065-066-070>072-011700-
SOUTHEAST WISCONSIN

CITY           SKY/WX    TMP DP  RH WIND       PRES   REMARKS
MILWAUKEE      MOSUNNY   61  49  64 SE15G21   30.01F
WAUKESHA       MOSUNNY   57  48  72 SE7       30.01F
MILWAUKEE/TIMM PTSUNNY   61  46  59 SE10      30.02F
RACINE         MOSUNNY   61  48  62 SE15      30.03F
BURLINGTON     SUNNY     61  47  61 SE8       30.00F
KENOSHA        MOSUNNY   60  50  69 SE12      30.01F
FOND DU LAC    MOSUNNY   61  50  67 SE15      29.99F
SHEBOYGAN      NOT AVBL
WEST BEND      PTSUNNY   59  46  63 SE9       30.00F
JUNEAU         SUNNY     59  49  68 SE9       30.00F
$$

LSZ147-162-011700-
LAKE SUPERIOR

STATION/POSITION TIME  TEMP    WIND        PRES    WAVE
                       AIR SEA DIR/SP/G            HT/PER
                 (UTC) (F)     (DEG/KT/KT) (MB)    (FT/S)
W MID LAKE BUOY  1550   49 50  150/ 10/ 12 1013.4F   2/ 4
DEVILS ISLAND    1600   50     150/  4/  6 1012.8F
SAXON HARBOR     1500   55     210/  6/ 13 1012.5F
$$

LMZ867-665-643>646-011700-
LAKE MICHIGAN

STATION/POSITION TIME  TEMP    WIND        PRES    WAVE
                       AIR SEA DIR/SP/G            HT/PER
                 (UTC) (F)     (DEG/KT/KT) (MB)    (FT/S)
CHAMBERS ISLAND  1500   55     170/  3/  9 1017.6R
N MID LAKE BUOY  1550   55 58  170/  6/  8 1018.0S   1/ 3
NORTHPORT PIER   1500   56     150/  7/ 10 1017.3S
SISTER BAY       1442          200/  8/  9   N/A
KEWAUNEE LAKESHO 1500   53     140/ 11/ 14 1016.4R
SHEBOYGAN LAKESH 1600   56 54  140/ 14/ 15 1016.8F
PORT WASHINGTON  1500   59     170/  5/  6 1017.3
ATWATER BUOY     1600   58     160/ 12/ 16 1017.4F
MILWAUKEE LAKESH 1500   58     150/ 11/ 13   N/A
S MID LAKE BUOY  1550   57 61  150/ 10/ 12 1017.6S   1/ 3
KENOSHA   LAKESH 1600   58     150/ 13/ 16 1016.3F
$$

TC  - TEMPERATURE IN CELSIUS
VSB - VISIBILITY IN STATUTE MILES
WCI - WIND CHILL INDEX
HX  - HEAT INDEX



USA.gov is the U.S. government's official web portal to all federal, state and local government web resources and services.